Theta_e
324 323 323 323 323 324 324 323 322 323 324 325 326 326 327 326 327 326 324 323 324 324 326 329 332 332 334 341 348 351 353 352 353 355 355 355 355 355 355 354 354 354 353 351 348 347 347 347 347 345 341 339 339 338 338 338 337 337 337 337 336 335 336 337 337 337 337 337 336 336 336 334 333 333 335 336 337 338 339 341 342 343 345 346 347 347
323 323 323 324 324 324 324 323 323 322 324 325 325 325 325 325 325 326 325 325 325 325 326 330 330 330 332 338 346 351 351 351 352 354 355 355 355 354 355 355 355 354 354 353 351 348 348 347 345 344 344 343 339 338 338 337 337 337 337 336 335 334 335 335 336 336 336 336 336 336 335 333 332 334 336 338 339 340 341 342 343 344 345 346 347 347
323 323 324 323 323 323 324 324 323 322 322 323 324 323 323 325 326 327 326 324 324 324 326 329 327 327 331 336 344 350 351 351 352 353 354 354 355 354 354 354 355 354 354 354 352 349 347 347 347 347 348 346 342 339 338 337 337 337 336 336 336 335 334 335 335 335 335 337 337 336 335 333 332 334 337 339 340 341 341 343 343 344 344 345 346 346
323 324 325 324 323 323 323 324 324 323 323 322 322 321 320 325 326 325 325 323 323 324 324 327 326 326 332 338 343 349 351 352 352 352 353 354 355 354 354 354 354 354 354 354 353 351 349 349 349 349 350 349 347 343 338 337 337 336 335 335 335 335 335 335 335 335 336 337 338 338 337 336 335 335 336 339 341 342 342 342 342 342 343 344 345 345
324 323 325 324 322 323 323 323 324 324 323 323 323 321 320 324 325 325 325 324 324 324 324 325 323 324 332 337 341 347 351 352 352 352 352 353 354 354 354 354 354 354 354 354 353 352 350 349 349 349 349 348 347 343 338 337 337 336 335 334 334 335 335 335 334 335 336 337 338 339 339 339 338 338 337 338 340 343 342 342 341 341 341 342 343 344
325 322 323 324 323 324 324 323 323 323 322 322 323 323 323 324 325 324 324 324 323 323 325 325 319 321 333 337 340 346 350 351 352 351 352 352 353 353 354 353 353 353 353 353 353 352 351 350 350 349 347 345 344 340 337 337 337 336 335 334 334 334 335 335 335 335 336 337 338 339 340 339 339 339 338 338 339 341 342 342 341 340 340 341 341 342
324 321 321 323 324 324 324 323 323 323 321 319 322 324 323 325 325 324 324 323 321 321 325 326 320 321 328 333 339 346 349 351 351 350 351 352 352 353 353 353 353 353 353 353 353 353 352 351 350 348 345 344 343 340 338 339 338 337 336 335 335 335 336 337 337 336 336 337 338 338 339 338 338 338 338 338 339 340 341 342 341 341 341 340 340 341
323 321 320 322 323 324 324 323 323 323 321 319 322 324 323 324 324 324 325 323 323 323 324 325 323 320 321 327 337 344 347 350 352 350 351 352 352 352 353 353 353 353 352 353 353 353 352 350 348 345 342 342 343 342 341 340 339 338 337 336 336 336 337 337 338 338 337 338 338 338 338 338 337 337 337 338 338 339 340 341 342 341 341 340 340 341
324 322 321 321 321 323 323 323 323 322 322 321 323 324 323 324 325 325 325 323 324 322 320 323 323 320 319 326 337 342 343 347 351 351 350 352 352 352 352 352 352 353 352 352 352 352 352 350 347 343 341 340 342 343 341 340 340 339 338 338 338 338 338 338 338 338 339 338 338 338 338 338 338 338 338 338 338 338 338 339 341 341 341 340 340 341
323 323 323 322 321 322 322 322 322 322 323 322 322 323 323 323 324 324 324 323 322 320 319 321 321 319 319 322 332 338 339 341 347 349 350 351 352 351 352 352 352 352 352 352 351 351 350 349 347 344 342 340 341 343 342 342 341 340 340 339 339 339 339 338 338 338 339 338 338 339 338 338 337 338 338 338 338 338 338 338 339 339 339 340 340 340
321 322 323 322 322 323 322 322 321 322 323 321 322 323 321 323 323 323 323 322 320 319 319 321 320 320 319 320 327 334 337 339 342 346 349 351 352 352 351 351 352 352 352 352 351 351 350 348 348 347 346 343 342 343 344 344 343 343 342 341 340 340 339 339 339 339 339 338 339 339 338 338 338 338 339 339 338 337 337 337 337 337 338 339 339 340
321 322 323 322 323 323 322 321 321 322 322 321 323 322 320 321 321 320 321 320 318 319 319 321 321 319 317 321 326 332 336 338 339 341 347 349 351 351 351 351 351 351 352 352 351 351 351 350 350 350 349 346 345 344 344 345 346 346 345 343 342 342 342 342 342 341 341 340 340 340 339 339 338 338 339 338 338 337 337 337 337 337 337 338 339 340
321 322 322 321 323 323 322 321 320 320 321 322 322 320 318 319 318 317 318 318 317 318 319 320 320 318 318 323 327 330 334 337 338 340 344 347 350 351 350 350 351 351 351 351 351 351 350 349 350 350 349 348 346 344 342 344 347 347 346 345 344 344 344 345 346 346 345 345 344 343 342 341 340 340 339 338 338 338 337 337 337 337 337 338 338 339
319 321 321 321 322 323 323 321 319 319 321 321 320 318 317 317 317 317 317 317 317 316 318 319 319 317 317 322 326 327 330 335 339 341 342 346 348 349 349 350 350 351 351 351 350 350 350 349 348 348 348 347 346 343 341 342 345 346 345 345 345 346 345 346 347 347 347 347 346 346 345 344 342 341 339 339 338 338 338 337 338 338 338 338 337 337
318 319 321 321 322 323 323 322 322 321 321 322 322 321 318 317 317 316 316 316 315 315 316 318 318 316 317 323 329 327 327 332 336 339 340 342 344 343 346 349 349 350 350 350 350 349 349 349 347 347 346 346 345 344 342 341 342 343 343 343 345 345 346 346 346 347 347 347 347 347 347 346 344 343 341 340 339 338 337 337 338 338 338 338 337 336
318 319 321 322 323 323 322 323 323 322 320 322 323 321 319 320 319 317 317 317 315 315 316 317 317 320 322 328 330 328 328 329 332 338 340 341 343 343 346 348 348 349 349 350 350 349 349 348 348 347 346 346 345 345 344 342 340 340 339 341 343 344 345 345 346 346 346 346 347 347 347 347 346 345 345 344 342 339 337 337 337 337 337 338 337 336
318 319 321 321 322 323 323 323 323 322 320 321 320 319 321 323 321 317 317 319 317 315 317 318 317 320 323 325 328 328 329 329 330 334 337 339 342 343 345 346 347 348 348 349 349 349 348 348 348 348 346 346 345 345 345 343 341 340 339 339 340 342 343 344 345 345 345 345 345 346 346 346 347 346 346 346 345 343 340 338 337 337 337 337 337 336
319 319 321 321 321 323 324 324 323 323 323 320 318 320 322 323 323 320 318 318 317 314 317 317 315 316 317 320 328 331 330 329 329 331 335 339 341 342 343 344 344 345 346 347 347 348 348 348 347 348 347 346 345 344 343 342 342 342 341 341 340 340 341 342 342 344 344 344 345 345 345 346 346 346 346 346 346 345 344 342 340 339 337 336 336 335
320 319 320 322 323 322 323 323 322 322 323 322 321 323 322 319 320 321 319 318 316 315 316 317 316 316 316 319 326 331 331 331 331 332 334 336 339 340 341 341 341 342 344 345 346 346 347 347 347 347 347 346 346 344 343 343 343 343 343 343 343 341 341 341 341 342 343 344 344 344 344 344 345 345 345 345 345 346 346 345 343 342 339 336 335 334
321 319 319 321 323 322 322 322 321 321 322 321 321 323 322 320 320 322 320 318 317 316 317 317 316 316 318 322 325 328 333 334 333 334 335 335 338 340 340 340 339 340 341 342 344 345 345 346 346 346 347 347 346 345 344 344 344 344 344 344 344 343 344 343 343 342 343 342 342 343 343 344 344 344 345 345 345 346 346 346 345 344 342 339 336 334
322 321 318 319 320 320 321 322 322 322 321 320 319 320 320 320 320 321 320 318 317 317 317 317 316 316 322 328 326 325 332 335 336 336 336 336 337 339 338 336 335 337 338 339 340 342 343 344 345 345 346 346 346 346 345 345 345 344 344 344 343 344 344 344 344 344 343 342 342 342 343 343 343 344 345 345 345 345 346 345 345 345 344 343 341 338
322 322 319 318 318 318 320 322 324 325 324 322 321 320 320 320 319 318 318 318 317 317 318 317 316 317 323 330 329 327 330 333 337 337 336 336 337 338 337 334 333 336 337 337 338 340 341 342 343 344 345 345 345 346 346 346 345 345 344 344 344 344 344 344 345 344 344 344 343 342 342 343 343 344 344 345 345 345 345 345 345 345 345 345 344 343
321 324 321 318 318 319 320 322 323 323 325 325 323 323 323 322 319 317 318 319 317 317 319 317 316 320 327 333 333 333 332 333 336 338 336 337 335 336 337 335 335 337 337 338 338 339 340 340 340 343 344 345 345 345 345 345 345 345 345 344 344 344 344 343 343 343 343 343 343 343 343 343 343 343 343 344 345 345 345 345 345 345 345 345 345 345
321 324 322 319 321 321 320 321 321 321 322 322 324 324 323 323 322 320 322 323 318 317 318 317 317 320 328 337 337 334 335 332 332 335 336 337 336 335 334 334 334 335 337 338 338 338 339 339 340 341 343 344 344 345 345 345 345 345 344 344 344 344 343 343 343 343 343 343 343 343 343 343 343 343 344 345 345 345 345 345 345 345 345 346 345 345
320 323 322 320 320 320 320 320 320 319 320 321 323 324 323 324 323 322 326 325 320 317 318 318 317 319 329 339 336 332 333 332 330 332 332 334 336 335 333 332 332 334 335 337 337 338 338 338 339 340 341 342 342 343 344 344 345 345 344 345 344 344 344 343 344 343 343 343 343 343 344 343 343 343 343 344 344 344 344 344 345 345 345 345 346 346
320 323 323 321 321 320 321 321 320 319 321 321 322 323 323 323 323 322 323 321 319 321 321 318 318 321 328 336 333 330 331 333 334 333 331 330 330 330 330 330 330 332 334 336 337 337 338 338 339 339 339 340 341 342 343 343 344 344 344 344 344 344 344 343 343 344 343 343 344 344 343 343 343 343 343 344 344 344 344 344 345 345 345 345 346 346
320 322 323 323 323 322 322 323 321 320 321 321 321 323 323 323 323 322 321 319 322 324 321 320 323 322 324 330 335 335 333 334 338 337 334 332 328 325 327 327 329 330 331 333 335 336 338 338 338 339 339 339 340 340 341 342 343 343 343 343 343 344 344 343 343 343 343 343 344 343 343 343 343 343 343 343 344 344 344 344 345 345 345 345 346 346
318 318 321 322 321 319 319 320 319 319 320 321 322 323 323 324 324 321 320 323 328 322 317 326 332 324 322 329 336 341 340 338 339 339 335 332 328 326 328 327 328 329 330 332 334 335 337 337 337 339 338 339 339 340 340 341 341 342 342 343 343 343 343 343 343 343 343 343 343 343 343 343 342 343 343 343 343 344 344 344 345 345 345 345 345 346
316 318 319 318 317 316 316 317 318 319 321 321 321 322 323 323 324 322 321 325 329 322 320 335 341 328 324 328 329 336 342 339 338 336 333 330 327 326 327 327 327 327 328 330 332 334 335 336 337 338 338 339 339 340 340 340 341 342 342 342 343 342 343 343 343 343 343 343 344 343 342 343 343 343 343 343 343 344 344 344 345 345 345 345 345 346
315 317 318 315 315 316 315 316 318 319 319 319 320 321 321 322 323 323 323 324 326 324 324 335 341 331 325 327 326 330 335 333 331 329 327 326 326 324 324 325 325 326 326 328 329 331 333 334 335 336 337 339 339 339 340 340 341 341 341 342 342 342 342 343 343 343 343 343 343 343 342 343 344 343 344 344 344 344 344 345 345 345 345 345 346 346
313 315 315 314 314 315 315 316 318 318 318 318 319 320 320 322 322 322 323 323 324 325 323 328 334 332 329 330 331 331 331 328 330 330 327 325 325 324 324 325 325 326 326 327 327 327 328 328 331 335 337 339 339 339 340 340 341 341 341 342 342 342 342 342 343 343 343 343 342 342 343 343 343 344 344 344 344 344 345 345 345 345 345 346 346 346
312 312 313 313 314 316 315 316 316 317 318 318 319 321 321 321 322 322 324 324 323 324 324 324 326 329 330 331 332 331 330 330 333 336 332 327 325 325 325 325 327 327 326 327 329 328 327 328 329 331 334 336 338 339 339 340 341 340 341 341 341 342 342 342 342 343 343 343 343 343 343 344 344 344 344 344 345 345 345 345 345 346 346 346 346 346
311 311 312 312 314 315 315 315 316 317 318 318 318 320 321 321 322 322 323 324 324 324 324 323 324 328 333 332 331 331 330 331 334 334 330 326 325 325 325 325 326 326 326 328 330 329 329 330 331 331 332 334 337 338 339 340 341 340 341 341 341 342 342 342 342 342 342 343 343 343 343 344 344 344 344 345 345 345 346 345 346 346 346 346 346 347
312 312 311 312 313 314 314 315 316 318 319 320 319 321 324 326 326 324 322 323 324 323 324 324 326 332 334 332 331 332 331 332 333 330 327 326 325 324 326 326 326 327 329 330 330 329 329 331 334 335 335 335 335 337 339 340 341 341 341 342 342 342 342 342 342 342 343 343 343 343 344 344 344 344 345 345 345 346 346 346 346 346 347 347 347 347
312 312 312 312 313 313 314 316 318 320 320 319 320 327 331 332 333 331 326 323 324 324 324 325 325 330 333 332 332 332 330 331 332 329 326 325 326 326 327 327 328 329 332 333 332 331 331 332 335 337 337 337 336 337 339 340 340 341 341 342 342 342 342 343 343 343 343 343 343 344 344 344 344 345 345 346 346 347 347 347 347 347 347 347 347 347
311 312 312 313 313 313 315 317 319 320 319 316 321 332 335 334 336 334 328 325 326 325 324 325 326 328 331 332 330 330 332 336 338 337 333 328 329 331 330 330 330 329 331 333 331 330 332 334 336 338 339 339 338 338 339 340 341 341 341 342 342 342 343 343 343 343 343 343 343 344 344 344 344 345 345 346 347 347 348 348 347 347 348 348 348 348
311 312 311 312 312 313 314 315 317 318 316 318 328 335 334 334 336 336 335 334 333 331 329 328 326 326 329 329 328 330 335 338 341 343 340 335 333 333 331 331 331 331 332 333 332 332 333 336 339 340 340 340 340 339 339 340 341 341 342 342 342 343 343 343 343 344 344 344 344 344 344 344 345 345 346 346 347 348 348 347 348 348 349 349 349 349
311 312 312 311 312 313 313 313 315 316 316 324 334 334 332 334 334 334 335 338 336 336 337 335 332 329 328 329 331 336 339 336 336 341 342 339 338 338 337 337 336 337 338 337 337 336 337 339 341 340 340 341 341 340 340 340 341 342 342 343 343 343 343 343 344 344 344 344 344 344 345 345 346 346 347 347 347 348 348 348 348 348 349 349 349 349
311 311 312 312 311 312 312 311 313 315 318 327 334 332 331 334 334 332 333 335 336 335 336 338 338 338 335 332 336 342 339 331 331 337 339 340 343 343 343 343 343 343 343 341 340 339 339 342 343 340 340 342 341 341 341 341 341 342 342 343 343 343 344 343 344 344 344 344 344 345 345 346 346 347 347 347 347 348 348 348 348 348 349 349 349 349
311 311 312 312 312 312 312 311 312 314 317 324 330 331 332 334 335 333 330 331 334 333 334 337 339 342 344 341 339 340 336 331 334 337 337 342 346 347 346 348 348 347 345 342 340 339 340 343 344 342 341 341 341 341 341 341 341 342 342 343 344 344 344 344 344 345 345 345 345 345 345 346 346 347 347 347 348 348 348 349 349 349 349 349 350 350
312 312 312 311 312 312 312 312 312 313 316 320 327 332 334 333 333 332 330 332 334 333 334 338 339 343 346 344 340 339 338 338 338 338 340 345 348 348 349 352 352 350 348 344 342 341 342 344 345 344 342 341 341 341 341 341 342 342 342 343 344 344 344 344 345 345 345 346 346 346 346 346 347 347 347 348 348 348 349 350 349 350 351 350 351 351
315 313 313 312 312 312 313 313 312 314 319 324 329 333 332 329 330 332 332 333 332 333 335 337 338 342 345 344 341 340 342 343 342 343 345 348 349 350 352 354 356 356 354 350 345 344 345 346 347 347 345 343 343 342 342 342 342 342 343 343 344 344 345 345 346 346 346 346 347 347 347 347 347 348 348 349 349 350 350 351 351 352 352 352 353 353
315 315 315 313 312 313 313 313 313 317 324 330 332 333 332 329 331 333 332 332 333 333 333 334 337 341 344 344 342 341 343 346 346 346 347 348 348 350 351 353 356 359 358 356 352 350 349 347 347 347 347 347 346 345 345 344 343 343 343 344 344 345 345 346 346 347 347 348 348 348 348 348 348 349 349 349 350 351 351 352 353 353 354 354 354 354
315 317 317 316 314 313 313 314 318 324 330 332 332 333 334 333 332 331 331 332 333 332 332 333 336 341 343 344 343 343 344 346 346 346 346 346 347 348 349 350 354 357 358 358 357 356 356 355 352 351 350 349 349 349 348 347 347 346 345 345 345 345 346 346 346 347 347 348 349 349 349 350 350 350 350 351 351 352 353 354 354 355 356 357 356 356
315 316 316 317 317 315 315 318 322 326 329 331 332 333 332 331 330 329 330 331 332 331 331 332 336 339 342 343 343 343 344 344 344 345 345 345 345 346 346 349 352 355 356 356 356 356 357 358 358 357 357 356 355 354 353 352 351 350 349 349 349 348 348 348 348 348 349 349 349 349 350 350 350 351 352 352 353 353 354 355 355 356 357 358 359 358
313 313 314 316 316 317 318 320 322 324 327 330 331 331 330 330 329 328 329 329 329 330 331 332 335 338 341 342 343 343 343 343 343 344 344 344 344 345 345 347 350 353 354 355 355 355 355 355 355 355 356 357 357 357 357 357 356 356 355 355 355 355 355 354 354 354 354 354 354 353 352 352 351 351 352 352 353 354 354 355 356 357 358 359 360 360
312 312 313 315 316 317 319 322 325 328 329 330 330 329 329 329 329 329 329 329 329 329 331 333 335 337 339 341 342 342 342 342 342 343 343 344 344 344 345 346 347 349 351 352 353 353 353 352 352 352 352 352 353 353 354 354 355 355 355 356 356 356 357 358 358 359 359 359 359 358 357 356 354 353 353 353 353 354 354 355 357 358 358 359 360 361
311 312 311 312 313 315 317 320 321 323 327 329 330 330 330 329 328 328 329 329 329 329 330 333 335 336 337 338 340 340 341 341 342 342 342 343 343 344 344 345 346 347 348 349 349 350 350 350 350 350 349 349 349 350 349 350 349 349 349 349 349 350 350 351 352 353 356 358 360 361 361 360 358 357 355 355 354 354 355 355 357 357 359 359 360 360
310 310 310 311 312 313 314 315 317 319 324 328 329 330 330 329 328 329 330 330 330 330 330 332 334 336 335 336 338 340 340 341 341 341 342 342 343 343 344 345 345 346 346 347 347 347 347 348 348 347 347 347 347 347 346 346 346 346 346 346 346 346 346 347 347 348 348 350 353 356 358 361 362 361 360 359 358 357 356 355 355 356 357 357 358 359
310 310 310 311 312 312 313 315 319 324 327 329 329 329 329 329 330 332 332 331 329 329 331 332 333 334 336 336 337 338 339 340 341 341 342 342 342 342 343 343 344 344 345 345 345 346 346 346 346 345 345 345 344 344 343 343 342 342 342 342 342 343 344 344 345 345 345 346 347 348 351 355 358 360 361 361 361 360 360 359 358 357 357 357 357 358
310 311 311 312 313 314 314 317 320 323 324 327 329 329 328 330 333 333 332 331 330 329 331 332 332 333 333 335 338 338 338 339 341 342 342 342 342 342 343 343 343 344 344 345 345 345 345 345 344 344 343 341 341 340 340 340 340 341 341 341 341 342 342 342 343 343 343 344 344 344 345 346 348 350 352 353 353 354 355 354 352 351 351 351 351 351
Wind_Speed
12 7 8 12 9 11 11 13 12 2 1 6 7 8 9 8 9 6 3 2 2 4 7 8 9 12 11 7 11 17 19 18 16 15 18 21 23 25 27 27 29 33 34 33 36 38 37 36 33 35 38 38 38 38 38 38 37 36 36 35 35 34 33 32 31 31 30 30 30 29 28 27 26 25 24 23 23 23 22 21 19 18 17 16 15 15
11 11 13 12 8 9 11 11 11 9 6 6 6 7 7 9 8 5 5 6 4 5 6 6 10 12 10 7 10 15 17 17 20 20 21 24 24 25 27 28 29 29 28 28 34 39 39 39 39 39 36 36 40 40 38 38 37 37 36 36 35 35 34 33 33 32 32 32 31 30 29 27 26 25 25 24 24 23 22 21 20 19 18 18 17 16
9 13 13 11 8 8 10 12 13 14 12 9 7 7 7 8 6 6 5 5 4 5 6 7 10 11 8 6 10 16 17 20 25 26 26 28 26 26 29 29 28 26 25 28 35 40 41 41 40 38 33 33 38 40 39 38 37 37 37 36 36 36 35 34 34 33 33 32 30 29 27 26 26 25 25 25 24 23 22 21 21 20 19 19 18 18
9 9 10 13 11 12 11 12 14 13 12 11 9 9 10 7 5 6 3 1 2 4 6 7 9 9 5 5 8 15 19 19 23 25 23 24 26 28 29 29 27 28 29 31 34 38 40 40 41 39 33 30 33 38 41 40 39 39 38 37 37 36 36 35 34 34 33 31 29 28 26 25 25 25 25 25 25 24 23 22 22 21 20 20 20 19
8 2 11 17 14 16 13 11 14 11 9 12 13 12 11 7 6 5 1 4 4 5 6 6 9 8 5 7 8 11 15 15 18 21 20 20 23 23 23 23 25 28 31 32 34 38 40 42 43 42 38 35 36 40 43 42 41 40 38 38 37 36 36 35 35 35 34 32 30 29 28 27 26 27 27 28 28 27 25 24 23 22 21 21 21 21
10 4 12 18 16 18 15 11 15 13 9 10 14 15 11 6 6 3 2 5 6 6 3 2 7 6 3 7 6 6 11 14 16 19 21 22 23 23 22 24 26 28 30 32 35 38 39 41 42 43 44 43 43 44 44 43 41 41 39 38 37 37 36 36 35 35 34 33 32 32 31 30 31 31 31 31 30 28 26 25 24 22 22 22 22 22
7 8 12 15 16 19 17 13 15 14 10 8 9 12 9 6 8 7 5 5 5 6 1 1 7 6 2 6 5 6 10 13 14 15 19 23 23 24 26 26 27 28 29 31 33 35 36 40 42 45 47 47 47 46 44 43 42 41 40 39 38 38 37 37 37 36 35 34 34 34 33 33 33 33 32 31 29 28 26 25 24 23 23 23 23 22
8 12 12 14 15 16 16 13 13 16 12 6 7 11 11 10 11 10 8 8 7 6 5 6 7 7 8 7 5 7 9 11 14 15 17 22 24 26 28 28 29 31 32 33 34 35 37 42 45 46 48 48 47 46 45 45 44 43 42 41 39 39 39 38 38 37 36 35 35 35 34 34 34 33 32 30 28 27 26 25 25 24 23 23 22 22
12 16 16 16 14 12 13 10 13 17 13 5 8 10 11 11 11 10 8 8 6 5 9 10 7 7 10 6 5 7 9 10 14 17 17 21 25 27 28 29 29 32 33 35 38 41 42 44 46 46 46 48 47 47 46 46 45 43 43 42 41 41 40 39 39 37 36 36 36 35 35 36 35 34 33 31 29 28 26 25 25 25 24 23 22 23
8 15 18 16 12 11 10 9 14 18 12 4 9 8 7 7 7 7 7 6 4 6 11 10 8 7 11 7 6 6 8 11 12 14 16 21 26 27 28 30 30 31 32 34 38 43 46 46 46 45 44 46 48 48 47 46 45 44 43 43 43 42 41 41 39 38 38 37 36 36 36 36 35 35 34 33 31 30 28 27 26 25 25 23 23 23
3 7 14 12 11 11 9 9 13 17 12 8 8 7 6 5 4 3 3 2 4 9 12 12 11 8 10 9 8 7 7 10 10 9 12 17 24 27 29 31 31 31 32 35 38 41 45 46 44 44 44 46 47 48 49 48 46 45 44 44 44 43 43 42 40 39 38 37 37 37 37 36 36 35 35 34 33 32 30 29 28 27 26 25 24 24
3 5 8 7 12 13 10 9 9 12 12 10 8 8 5 4 2 3 3 3 8 10 7 11 12 10 11 8 6 9 11 12 11 10 12 15 22 28 30 32 33 33 34 36 38 39 42 45 44 44 45 46 47 49 50 49 47 47 47 46 46 45 44 43 41 40 39 38 38 38 37 37 36 36 36 35 34 33 31 30 30 29 27 26 26 25
10 7 4 4 12 16 12 9 7 7 11 11 9 9 8 5 4 6 6 5 10 7 2 7 10 10 13 7 3 8 11 12 12 12 12 16 21 27 30 33 35 35 35 38 42 43 43 46 47 47 47 47 47 48 49 49 49 49 48 48 47 47 45 44 43 41 39 39 38 37 37 37 37 36 36 36 35 34 32 31 30 30 29 28 27 27
7 6 6 6 7 15 16 10 8 8 11 13 10 10 10 7 7 9 8 5 8 4 4 7 7 7 10 7 8 13 12 13 15 16 17 19 23 28 32 35 36 36 37 39 44 48 49 51 51 50 50 49 48 47 48 49 50 50 49 49 49 48 47 46 45 43 42 41 39 37 37 36 36 36 36 36 36 35 34 32 31 30 29 29 28 27
9 7 10 13 8 14 18 13 10 9 10 13 10 9 10 7 7 7 6 6 6 2 4 7 5 6 5 2 6 13 16 19 20 21 22 23 26 30 32 32 32 34 37 39 43 49 53 55 54 52 52 51 49 49 49 49 50 50 50 50 50 49 48 48 46 45 44 43 41 39 37 36 35 34 34 35 35 36 35 34 33 31 30 29 28 27
13 7 8 16 12 15 17 13 11 12 9 10 9 9 10 8 6 2 2 4 2 1 3 5 4 5 2 2 3 7 11 15 18 18 19 21 24 24 22 24 28 33 36 37 42 49 54 55 55 54 53 52 51 50 50 51 51 51 50 50 50 50 49 48 48 47 45 43 42 40 39 38 36 35 34 34 33 34 35 34 34 33 31 30 29 28
9 5 7 11 10 14 18 15 14 13 7 5 9 11 7 6 7 5 2 1 1 5 4 5 7 6 3 6 8 10 9 10 13 14 15 19 20 19 18 22 26 31 36 39 43 50 55 55 55 55 54 54 53 52 52 52 51 51 51 51 50 50 50 49 49 48 46 44 43 41 40 39 38 37 36 35 33 32 33 34 34 33 32 31 30 29
3 5 6 10 11 13 15 16 16 15 10 7 9 11 6 5 6 7 4 3 5 7 4 5 9 9 6 5 5 11 12 11 12 13 14 17 17 18 19 24 29 33 36 40 45 50 53 54 55 55 56 56 55 55 54 52 51 51 52 52 51 51 50 50 50 49 47 45 44 43 42 41 40 39 38 37 35 33 32 32 32 32 32 32 31 30
3 5 5 11 15 10 9 13 13 12 11 6 7 10 7 4 7 7 5 6 7 8 5 5 8 9 10 7 3 7 11 12 12 12 14 15 15 18 20 24 30 33 32 37 43 47 50 53 55 56 57 57 57 56 55 53 52 52 52 52 52 51 50 50 50 49 49 47 45 44 43 42 41 40 39 38 37 36 34 32 31 31 31 32 32 31
3 5 4 7 11 10 9 10 10 10 8 3 4 9 6 4 6 7 5 4 6 7 5 4 5 7 9 9 7 8 9 10 11 10 11 13 16 20 23 26 30 32 34 38 42 46 50 53 55 57 58 58 58 58 56 54 54 54 53 53 52 51 51 51 51 50 49 48 46 46 45 44 43 42 41 40 39 38 36 35 33 31 30 31 32 32
1 6 5 2 6 9 9 9 11 12 10 6 7 9 7 4 3 5 5 4 5 6 5 5 7 5 3 6 11 13 11 9 10 10 10 13 17 21 26 33 35 34 37 39 42 45 49 51 53 55 57 58 57 57 56 55 55 55 55 54 53 52 52 51 51 50 49 48 47 47 46 45 44 43 43 42 41 40 39 37 36 33 31 31 31 32
1 4 5 4 6 7 7 10 16 18 16 13 11 10 11 8 5 6 7 6 6 6 4 5 9 6 2 4 8 12 12 11 11 11 10 13 18 21 27 36 38 34 34 38 41 43 45 48 51 53 55 57 57 57 56 55 56 56 56 56 55 54 53 52 51 50 49 47 47 46 45 45 44 44 44 44 43 42 41 39 37 35 33 33 32 31
2 1 3 6 5 3 4 8 14 15 15 16 13 11 13 11 9 9 7 6 7 6 2 2 8 6 3 5 7 9 10 11 11 10 10 13 18 22 26 31 32 29 28 30 34 37 40 45 48 49 52 54 55 55 55 55 56 57 57 57 56 55 54 53 52 50 48 47 46 44 44 44 44 44 44 44 44 43 42 40 38 36 35 34 33 33
2 1 4 4 1 1 1 4 6 5 7 13 13 12 12 12 13 12 6 4 7 7 5 4 8 5 2 3 5 5 6 8 8 9 11 13 16 20 25 29 30 28 26 24 27 31 36 40 43 44 47 49 51 53 54 55 57 57 57 57 57 56 55 54 53 52 50 48 47 45 45 45 44 44 44 45 45 44 43 42 40 38 37 35 35 35
2 0 3 5 5 5 6 7 7 4 5 7 9 11 14 15 17 14 5 2 6 12 12 9 9 5 2 1 3 3 4 6 7 8 10 12 13 15 20 25 27 26 25 24 25 28 31 35 38 42 44 46 49 52 53 55 56 56 56 57 57 56 56 55 54 54 52 50 49 48 47 46 45 45 45 45 45 44 43 42 41 40 38 37 37 36
1 1 1 5 8 10 8 7 6 3 3 3 4 9 14 17 20 15 6 5 8 10 13 13 9 2 3 2 3 4 5 6 9 10 8 11 15 15 17 19 20 20 21 23 25 26 29 32 35 39 43 45 48 51 52 53 54 55 55 56 56 56 56 56 55 55 53 52 51 51 49 48 47 46 46 45 45 44 43 43 43 42 40 39 38 38
0 1 2 1 1 2 2 2 3 3 3 4 4 6 8 14 20 16 9 8 6 5 9 14 10 4 4 5 4 4 6 6 9 9 6 9 15 19 19 19 18 17 18 20 21 24 27 31 33 37 41 44 47 49 51 52 54 54 54 54 54 55 56 56 56 55 54 53 53 52 51 50 48 47 46 46 45 45 44 44 43 43 41 40 40 40
0 2 3 3 4 3 5 7 5 5 6 7 7 9 8 9 15 18 15 8 7 6 12 11 8 9 9 6 4 6 7 8 8 8 7 10 15 18 18 18 17 16 17 16 18 21 26 29 32 35 39 42 45 47 49 51 53 53 53 53 53 54 55 55 55 54 53 53 53 54 52 50 48 47 47 47 46 45 45 44 44 43 42 42 42 42
1 1 3 3 5 5 7 9 7 5 6 8 9 11 11 11 12 16 15 9 10 10 12 5 7 11 13 10 9 6 5 7 8 9 12 13 15 15 14 14 14 15 17 17 17 19 23 27 29 31 36 40 43 45 47 50 51 51 52 53 53 54 54 53 53 52 53 54 54 53 51 50 49 49 48 48 47 46 46 45 45 45 44 44 43 42
2 1 4 6 8 6 7 9 7 5 6 9 10 12 14 14 13 12 12 13 13 15 15 8 9 12 13 13 14 13 11 10 8 9 12 12 12 12 12 13 14 14 16 19 20 20 21 24 27 29 33 37 40 43 46 48 49 51 52 53 53 53 53 52 51 52 53 54 53 52 50 50 50 50 49 49 48 47 47 46 46 46 45 45 44 43
4 2 5 7 7 6 6 7 8 8 9 11 12 12 13 14 14 12 11 14 14 14 17 15 11 9 8 8 11 12 11 9 7 8 12 15 15 13 12 14 16 17 19 21 22 22 22 24 26 28 32 36 39 41 44 46 48 49 51 52 52 52 52 51 51 52 53 53 52 51 50 50 51 50 50 49 48 48 47 46 46 46 45 45 44 44
4 3 4 5 5 5 5 6 10 13 14 14 14 14 14 14 14 12 10 11 12 11 14 16 12 7 4 4 7 7 5 6 7 7 12 18 19 17 16 18 20 23 24 21 19 19 21 23 25 27 30 34 38 40 41 43 46 48 50 50 50 50 51 51 51 51 51 51 51 51 51 51 51 50 50 49 49 48 47 46 46 46 46 46 45 44
2 3 3 4 5 5 6 8 10 12 11 11 9 8 10 13 14 14 12 13 13 12 11 12 9 4 4 7 9 9 8 8 9 12 17 20 20 20 19 21 23 26 25 22 20 20 20 20 21 23 26 31 35 38 38 41 45 47 48 48 48 49 50 50 50 50 51 51 51 51 51 51 51 50 50 49 48 48 47 47 47 47 47 46 46 46
3 3 3 3 3 5 8 9 10 8 7 5 1 1 5 10 12 14 16 15 15 13 11 9 7 5 7 9 9 10 13 14 16 20 24 24 22 22 22 23 24 25 23 21 21 21 21 19 19 19 22 26 31 34 35 38 41 42 44 46 47 49 49 49 49 49 50 51 51 51 51 51 50 50 49 49 49 49 48 48 48 47 47 47 47 48
5 4 4 3 3 5 6 6 8 8 5 7 6 2 3 7 7 10 15 16 17 17 14 13 12 10 8 9 12 17 21 22 20 19 20 22 23 23 23 22 22 22 22 19 19 20 20 20 18 17 19 22 26 31 34 36 37 40 43 44 46 47 48 48 48 48 49 50 51 50 50 50 50 49 50 50 49 49 49 49 49 48 48 49 49 48
7 5 4 4 4 4 3 5 8 4 9 16 11 5 3 3 3 6 10 10 10 12 13 14 14 12 10 9 14 19 18 14 12 11 14 18 20 21 21 21 20 22 23 22 21 22 22 21 19 16 15 16 20 26 30 33 36 39 41 42 44 45 46 47 47 48 49 50 50 50 49 49 48 49 49 49 49 50 50 49 49 49 49 50 49 49
10 7 5 5 6 5 5 8 9 7 13 14 6 5 3 3 4 5 4 4 5 5 7 10 12 14 13 9 11 13 9 4 5 8 12 16 17 19 20 19 20 22 22 22 23 23 22 19 17 15 12 13 17 22 26 29 33 36 39 41 42 43 44 45 46 46 47 47 48 48 48 48 48 48 49 49 49 50 49 49 49 49 49 50 50 51
13 10 8 7 6 6 7 8 9 9 9 5 3 2 3 4 3 2 2 4 3 6 8 8 9 13 12 8 8 8 6 5 6 7 13 18 18 18 18 17 17 18 18 19 19 19 18 16 14 14 13 12 15 18 21 24 27 32 36 39 41 42 43 44 45 45 45 46 46 46 46 46 47 47 48 48 48 49 49 48 48 48 48 48 49 50
15 11 8 8 7 7 9 9 9 9 5 2 4 1 4 3 2 3 4 3 1 8 11 10 9 11 11 6 7 9 7 7 7 6 15 21 19 16 15 14 13 12 12 12 13 13 13 11 12 13 13 14 15 16 18 20 24 29 33 36 38 40 41 42 43 43 43 43 43 42 42 43 44 45 46 46 47 48 48 47 47 47 46 47 48 49
13 9 8 10 10 9 10 9 8 7 4 0 2 0 3 1 4 5 6 2 3 9 13 12 11 12 13 10 5 9 8 8 6 8 16 20 17 16 14 12 11 10 8 7 6 6 7 8 10 13 15 17 17 17 18 20 23 27 31 33 35 37 38 40 40 40 40 40 40 40 40 41 42 42 43 43 44 46 46 46 46 46 46 46 46 47
9 8 8 10 11 11 11 10 8 7 5 4 3 0 1 1 4 5 5 2 4 10 12 14 15 15 14 13 9 8 7 7 7 10 16 18 16 15 15 14 13 11 9 8 7 6 6 7 9 12 15 16 17 18 19 20 21 24 27 29 31 33 34 34 34 35 36 37 39 40 41 42 42 41 40 40 42 44 45 46 46 46 46 47 47 49
7 7 8 10 10 9 9 9 8 7 4 6 4 2 2 4 5 3 3 6 9 12 13 14 16 16 16 15 14 11 7 5 6 11 15 16 16 16 15 15 15 15 14 13 12 11 10 8 9 11 12 14 15 16 17 17 17 18 20 23 25 26 27 28 29 31 33 34 37 39 40 42 41 40 39 41 42 43 45 46 46 46 47 48 48 49
4 5 7 9 9 7 8 9 9 7 4 9 6 3 5 5 2 3 5 9 8 9 13 14 14 15 16 15 13 10 5 3 7 11 12 14 16 16 15 15 17 18 17 17 16 15 15 13 12 11 12 13 14 15 15 15 15 14 15 17 19 21 23 25 26 28 30 32 34 36 38 39 38 37 39 40 40 41 43 45 46 47 48 48 48 49
5 5 5 6 7 7 8 8 4 3 1 9 8 4 4 4 1 1 4 8 7 6 10 12 13 14 14 11 7 8 7 7 7 8 9 12 14 14 13 13 15 18 19 19 19 18 18 18 17 16 15 14 14 15 15 14 14 14 14 15 16 17 19 20 22 24 26 28 30 32 33 34 34 35 37 38 39 40 42 43 45 46 46 45 46 48
4 2 3 4 5 6 8 7 7 12 11 7 8 5 5 5 2 3 5 6 6 6 7 10 12 12 10 7 6 8 9 9 9 8 8 10 11 11 11 13 16 18 19 19 20 19 19 19 19 18 18 17 15 15 14 13 13 13 13 13 13 13 14 15 16 18 19 21 23 25 26 28 29 31 33 35 37 39 41 42 44 45 44 41 40 41
6 8 5 4 6 9 11 12 12 14 18 14 6 6 6 6 5 3 3 2 4 5 6 7 8 8 6 5 7 8 9 10 10 8 7 9 10 10 11 13 16 18 19 20 20 19 18 19 19 19 20 19 17 16 15 13 11 10 9 8 7 7 8 9 10 11 12 13 15 17 19 21 24 27 29 31 34 36 39 40 41 42 41 39 37 36
6 6 4 5 8 8 7 8 8 8 14 15 8 6 6 6 6 5 3 4 5 6 5 3 2 4 4 1 5 8 9 10 11 10 8 8 8 9 10 12 14 16 18 19 19 18 18 17 17 17 19 19 18 17 15 14 12 11 10 7 5 4 3 3 4 6 6 7 9 10 13 16 19 22 25 27 30 32 33 34 34 35 36 37 36 35
4 5 6 6 8 6 7 11 14 14 17 19 12 7 8 9 9 8 9 9 8 6 4 1 2 3 4 4 5 7 9 11 13 13 10 8 8 9 10 12 13 15 17 19 18 17 17 16 16 16 16 17 17 15 13 12 11 10 9 8 7 6 5 4 3 2 3 4 5 6 8 11 13 17 20 22 24 26 27 26 27 28 30 32 33 35
9 9 9 7 7 8 11 14 15 15 17 18 14 9 9 12 14 14 14 13 9 6 5 4 4 6 5 5 6 7 8 11 15 15 13 11 11 11 11 12 12 14 16 18 19 18 18 17 17 16 16 17 16 14 13 12 11 10 8 7 6 5 4 3 3 2 1 1 2 4 6 8 10 12 15 16 18 21 24 25 25 26 29 31 33 36
11 10 9 7 7 8 9 9 7 7 8 10 12 11 10 14 19 19 16 13 8 6 6 8 8 8 8 8 10 9 8 10 16 18 18 16 15 14 13 13 13 15 17 19 20 20 21 20 19 18 19 20 18 16 15 14 13 11 10 8 7 6 5 4 3 2 1 1 1 2 3 6 8 9 11 12 14 16 19 21 23 26 29 31 34 36
11 10 8 7 8 12 13 11 9 8 9 10 12 12 11 14 19 21 17 10 6 6 9 11 10 9 8 10 14 15 12 12 17 21 21 20 19 18 17 16 17 19 20 21 24 24 24 24 23 23 23 23 21 20 19 19 18 17 15 13 12 10 8 7 6 5 5 5 4 4 3 3 3 3 4 5 7 10 12 13 14 17 20 23 26 29
Wind_Direction
180 190 210 212 208 193 192 202 208 206 152 189 194 218 236 241 245 252 270 306 332 293 264 257 260 262 258 216 187 193 192 199 198 184 185 187 187 189 192 195 197 202 205 205 208 210 210 211 211 213 214 213 211 211 210 210 209 209 211 212 212 212 211 212 211 210 210 210 211 212 213 215 215 215 215 215 216 216 218 218 218 220 221 223 222 221
181 214 221 204 190 179 187 198 201 212 213 196 196 212 229 238 246 260 279 283 291 287 272 275 280 273 268 239 191 186 191 199 198 191 192 193 192 193 195 198 199 202 201 201 207 211 213 214 216 216 215 214 214 212 211 211 210 210 212 213 214 213 213 213 212 211 211 211 212 213 213 214 215 216 217 218 217 218 219 219 219 221 222 224 224 225
196 229 215 178 164 173 186 194 196 209 217 221 221 225 239 234 251 272 266 265 257 264 276 286 284 280 278 248 198 189 195 201 201 199 198 195 193 194 197 199 197 196 196 199 207 212 213 216 216 216 214 214 215 215 213 212 212 212 212 213 214 215 215 214 213 213 213 214 215 216 217 217 218 220 221 222 222 221 223 223 223 223 224 225 227 230
203 231 192 160 166 182 186 190 196 206 214 223 219 221 236 217 220 250 219 131 221 243 279 294 289 280 273 243 210 201 202 202 204 205 204 200 198 199 199 198 195 193 195 199 205 210 212 215 216 215 213 212 214 215 215 213 212 212 212 213 213 214 216 215 215 215 215 216 217 219 220 221 223 225 226 227 226 225 225 225 226 227 227 229 231 233
212 199 158 164 177 190 192 187 192 204 212 220 219 222 232 210 202 239 291 333 288 246 256 283 289 277 236 227 224 203 203 207 204 204 207 206 206 205 201 200 199 199 200 201 204 208 211 214 216 216 216 215 215 216 215 214 213 212 212 213 213 214 215 216 216 216 216 217 218 219 221 222 223 226 227 228 227 224 223 224 226 228 229 232 234 235
222 140 152 172 179 191 200 197 194 202 212 220 221 222 224 201 191 206 268 298 288 262 237 262 276 271 207 232 233 184 195 208 204 204 208 208 206 205 203 203 203 204 206 206 207 209 211 213 215 218 220 219 218 218 216 215 214 213 212 212 213 214 215 216 217 217 217 218 218 218 219 220 221 223 224 225 225 224 223 224 225 227 229 232 235 237
209 148 156 180 183 188 201 211 198 193 214 230 208 200 198 187 193 202 221 247 267 271 282 183 262 276 269 248 231 189 202 210 206 208 211 209 207 206 206 205 202 203 206 207 209 210 210 213 215 218 221 221 221 220 218 217 216 215 214 213 213 215 216 217 218 218 218 219 219 221 221 222 222 223 225 226 227 226 225 226 227 228 229 232 234 237
167 159 166 184 187 191 204 211 188 183 215 234 150 159 176 192 208 211 223 241 256 278 277 245 248 277 276 250 201 190 208 214 212 213 213 211 210 209 210 209 205 204 205 206 208 210 212 216 218 221 222 222 221 221 220 219 218 216 215 214 214 215 217 218 219 219 218 219 221 222 223 225 226 227 228 230 230 230 229 228 230 230 230 232 233 237
160 175 178 179 187 200 207 192 164 181 215 216 136 156 177 195 210 208 220 242 247 263 262 241 212 251 269 244 154 175 208 221 218 214 213 212 211 211 212 211 208 206 207 208 211 213 216 219 222 223 223 223 222 222 221 220 219 218 217 217 216 216 218 219 220 220 220 220 222 223 225 226 228 229 230 232 233 234 232 231 232 232 232 233 234 237
155 190 184 174 189 205 199 170 160 186 210 167 138 147 156 177 187 191 216 236 226 239 250 235 189 225 267 249 173 170 211 225 223 214 211 212 211 211 212 212 210 208 207 210 214 218 220 223 224 225 224 225 224 223 223 222 222 222 220 220 220 219 219 220 221 222 222 222 223 224 226 227 228 229 230 231 233 235 235 234 233 234 234 234 235 237
90 185 183 179 200 200 179 168 176 190 188 140 149 159 151 159 143 159 206 210 235 245 244 229 201 213 267 257 198 184 207 217 222 215 206 208 209 209 211 212 211 208 207 210 214 219 223 225 226 225 225 225 226 226 225 225 224 224 224 223 223 222 221 222 222 222 223 224 225 226 227 228 229 230 230 231 232 234 235 234 233 233 233 234 236 238
219 182 173 189 207 191 168 176 191 188 173 162 187 194 186 183 168 209 188 176 240 248 230 214 201 206 245 254 186 190 204 206 218 219 201 200 206 208 210 212 211 209 207 210 213 216 221 224 225 224 225 226 225 226 227 226 226 227 227 226 225 225 223 223 222 222 222 223 225 226 228 229 230 231 232 232 234 235 235 235 234 233 233 233 235 237
219 203 167 192 204 191 180 186 191 178 177 190 201 194 200 200 191 218 206 202 239 243 151 181 188 209 239 258 210 205 208 205 218 222 205 201 204 205 207 209 209 208 207 209 213 216 218 222 223 224 226 226 225 227 227 227 227 228 228 227 226 225 224 223 222 222 222 222 223 225 226 228 230 232 233 234 236 236 237 237 237 235 233 233 234 236
206 212 205 202 197 191 189 189 187 180 184 196 197 188 198 194 193 214 206 215 243 230 118 141 172 229 253 256 224 216 216 213 218 222 217 209 207 208 210 209 207 207 207 208 212 216 218 222 224 224 226 226 226 226 227 227 227 227 228 227 226 226 224 224 224 223 223 223 223 224 225 227 229 231 233 235 236 238 238 238 238 237 236 234 235 236
200 218 203 196 183 176 190 203 191 165 177 197 195 191 205 203 203 211 197 213 245 221 129 138 173 226 232 217 208 213 217 215 214 218 218 218 218 219 217 209 205 206 208 209 212 216 220 222 224 224 226 227 226 226 226 226 227 227 227 227 226 226 225 225 225 226 225 225 224 225 225 227 227 229 232 235 237 238 239 238 238 239 238 236 236 237
211 231 178 188 184 164 186 206 172 148 175 196 180 196 220 208 189 210 219 216 259 287 169 172 220 242 225 296 275 236 231 221 218 217 215 220 222 218 213 205 203 207 208 208 211 217 221 223 223 224 225 227 227 226 226 226 226 226 227 227 226 226 227 227 227 227 227 227 227 227 227 227 228 228 230 233 236 237 238 239 238 239 239 239 238 238
212 220 141 170 182 178 189 188 167 170 180 170 182 203 209 171 179 216 243 123 249 258 212 187 243 266 271 265 239 222 232 227 222 221 217 222 220 211 208 205 204 206 208 210 212 217 221 222 223 224 224 225 226 227 227 227 227 226 226 226 227 227 228 228 229 229 229 229 228 228 228 229 230 230 231 232 233 235 237 238 238 238 240 240 239 238
208 212 143 154 183 196 191 178 179 184 161 145 195 193 135 122 192 221 234 200 217 244 232 198 236 248 247 252 208 196 212 219 219 217 217 221 219 215 215 211 212 213 212 213 216 218 220 221 223 224 224 225 226 227 229 230 230 228 227 227 227 227 228 228 229 229 230 230 230 230 230 230 231 231 232 233 234 235 236 237 237 237 237 237 236 237
219 227 170 176 190 184 167 177 188 183 169 170 189 167 142 171 193 186 216 225 216 233 245 220 236 243 231 228 195 190 204 212 217 215 216 218 214 218 221 218 219 218 214 214 217 218 218 219 222 223 224 225 226 227 229 230 230 229 229 228 228 229 228 229 229 230 230 231 231 231 231 231 232 232 233 234 235 235 235 236 236 236 235 235 234 235
209 216 205 194 184 158 158 190 194 182 187 198 156 166 177 210 192 178 195 214 207 224 241 236 246 247 227 210 210 225 224 221 223 218 218 219 213 215 220 222 222 220 217 217 217 218 219 219 221 223 224 226 226 227 228 228 228 228 229 229 230 231 230 230 231 231 231 231 231 232 232 232 232 233 233 235 236 236 236 236 236 235 235 235 235 234
220 209 216 161 149 164 179 195 196 188 189 192 188 191 187 177 187 189 194 203 211 223 228 240 252 250 189 175 200 217 226 230 230 226 226 226 223 221 222 226 227 224 222 221 218 219 220 219 220 222 224 226 227 227 226 225 226 227 228 229 230 231 231 231 231 232 232 232 232 233 233 233 233 233 234 235 236 237 237 237 237 236 236 236 236 235
317 206 210 181 175 193 186 186 198 199 194 194 200 199 191 184 179 189 203 203 209 224 210 228 261 264 149 160 194 205 214 221 221 221 226 230 230 228 228 230 231 228 226 224 221 220 219 220 221 222 223 224 225 226 226 224 225 226 227 229 230 230 231 232 232 233 233 233 233 234 234 234 235 235 235 235 236 237 237 238 238 237 237 237 237 237
355 197 208 206 205 206 173 187 210 215 207 205 206 200 196 193 186 198 213 189 187 217 196 215 270 275 148 167 192 195 208 219 219 217 223 230 233 234 234 235 235 234 232 228 222 219 219 223 224 221 221 222 223 225 226 224 224 226 228 229 229 229 231 233 233 234 234 233 234 235 235 235 236 236 236 236 236 237 237 238 238 238 238 237 238 238
348 208 202 213 238 324 233 218 233 247 226 218 214 205 201 199 198 208 218 170 181 200 179 204 250 248 129 174 207 207 221 231 230 222 224 234 238 240 242 242 242 242 241 237 230 225 224 225 224 221 220 222 222 222 223 225 226 227 228 228 228 230 232 232 233 234 234 234 234 235 235 236 236 237 237 237 238 238 237 238 238 238 238 237 238 238
323 344 192 198 200 214 224 223 220 209 211 226 225 214 210 203 204 210 199 136 208 205 191 211 237 217 113 144 230 249 259 259 255 237 229 239 244 242 244 246 246 247 245 241 236 231 226 224 223 223 222 221 221 220 221 224 226 227 228 228 228 230 231 231 232 234 235 234 234 234 235 236 237 237 238 238 238 239 238 238 238 238 238 237 238 238
304 9 266 209 207 207 208 215 219 206 207 245 246 226 218 208 207 209 193 192 214 197 192 216 233 183 103 151 216 243 253 263 264 253 239 247 256 259 257 254 251 251 248 242 236 231 228 226 225 225 224 221 221 220 220 221 223 225 228 228 228 229 230 230 231 233 235 234 233 234 235 237 237 238 239 239 239 240 240 239 239 239 239 238 238 238
212 49 23 41 225 224 239 258 289 327 290 262 279 270 244 221 213 209 210 215 194 163 206 225 233 238 205 179 185 220 230 244 256 259 255 254 260 264 264 262 259 255 251 244 239 235 230 229 230 230 227 224 223 223 221 221 222 224 225 227 227 228 229 230 231 232 234 233 232 233 236 237 237 239 239 240 241 241 241 241 241 241 241 240 239 239
77 48 56 62 35 3 319 303 299 300 276 265 279 285 278 253 227 218 219 204 137 173 229 224 212 237 237 213 207 214 220 233 246 257 263 262 260 259 259 262 264 264 262 253 243 236 232 231 233 233 231 228 226 224 223 222 223 224 224 226 226 227 228 231 231 231 232 232 232 234 236 237 238 239 240 241 242 242 242 243 243 242 242 242 241 241
322 20 54 14 344 331 306 298 295 281 266 266 271 271 274 275 256 238 233 209 169 207 241 202 170 223 236 231 235 229 214 226 237 248 256 262 266 265 261 260 263 268 271 266 256 244 237 235 235 235 234 230 226 224 222 222 223 223 223 225 225 226 229 231 230 229 230 231 233 235 237 238 238 239 240 241 242 242 243 243 243 243 243 243 243 242
318 358 28 344 323 316 305 300 299 295 280 275 272 268 267 269 268 264 257 243 224 230 244 224 186 213 226 225 232 234 231 236 249 263 264 263 265 265 261 260 264 270 275 275 268 257 250 247 243 240 236 231 227 224 223 223 222 222 222 224 224 225 227 229 227 227 228 231 234 237 238 238 238 238 239 240 241 242 242 243 243 244 244 244 244 243
344 355 4 343 318 303 306 306 304 307 303 290 277 266 262 263 264 260 253 251 245 239 242 239 221 215 217 224 237 235 227 233 246 257 259 259 260 259 258 263 271 277 282 284 278 266 260 259 253 245 239 235 231 226 224 224 223 222 223 223 223 224 225 225 226 227 229 233 235 236 237 237 237 238 239 239 240 241 241 242 243 243 244 244 244 243
344 325 343 339 305 292 310 319 317 318 310 290 273 263 256 253 254 251 241 241 240 236 240 242 239 231 205 224 257 250 218 220 231 237 248 253 254 253 254 262 271 276 278 280 278 269 263 262 258 249 243 240 235 229 227 226 223 222 222 223 223 224 223 224 226 228 230 234 235 234 234 235 236 237 239 240 240 240 241 242 243 243 243 243 243 243
296 295 320 315 290 293 308 315 322 322 303 277 264 263 258 251 251 251 246 242 237 233 236 238 241 240 194 211 239 247 237 229 227 233 240 243 245 248 253 261 267 271 272 270 268 267 267 268 265 255 247 242 238 234 231 228 225 224 224 224 223 222 222 224 226 229 231 232 232 232 233 234 235 237 239 240 240 241 241 241 242 242 243 243 243 243
246 252 280 287 279 289 301 315 314 289 261 259 271 331 279 271 264 256 249 244 238 233 241 255 255 233 209 211 220 233 240 239 239 242 243 243 243 245 251 256 259 265 270 268 265 265 269 274 272 260 249 242 239 237 234 230 230 229 228 225 222 221 222 223 225 228 230 230 230 231 232 233 235 238 239 240 240 240 240 241 242 243 243 243 243 243
240 235 254 258 257 279 296 306 276 243 248 311 334 26 283 268 272 272 260 249 242 235 237 250 249 238 226 215 216 228 238 243 246 249 246 243 241 241 244 248 251 257 265 267 266 268 273 278 275 264 252 243 237 234 232 230 230 229 227 226 223 222 223 224 225 227 228 229 229 230 231 233 236 238 239 239 239 239 240 241 242 243 242 242 242 243
225 227 240 236 237 257 263 244 237 251 332 317 318 20 8 277 327 306 266 247 248 242 235 235 236 239 240 222 220 234 245 250 251 246 237 234 234 235 239 243 247 254 262 268 271 273 274 275 273 265 254 246 238 233 229 228 228 227 226 226 226 225 225 226 226 226 226 228 229 230 232 235 237 238 238 238 238 238 240 241 243 243 242 242 243 243
216 221 227 227 224 226 236 246 255 302 318 299 300 39 5 300 347 332 277 265 301 301 272 252 236 235 235 218 218 232 239 250 254 240 230 228 229 233 239 245 249 253 261 266 270 272 271 270 269 260 246 236 234 231 228 226 227 226 225 225 226 227 227 227 228 228 229 230 232 233 235 236 237 237 238 237 238 239 241 242 243 243 243 243 243 243
206 210 212 218 215 210 232 255 262 271 274 247 154 79 305 283 285 281 260 269 318 5 345 308 267 251 242 216 197 191 182 216 246 237 224 224 226 230 234 239 244 249 256 261 265 268 268 265 259 250 237 227 229 231 229 227 227 227 226 226 226 227 227 228 230 232 233 234 235 236 237 237 237 238 238 238 240 242 243 243 244 244 244 244 244 244
205 210 216 228 228 212 218 236 242 243 244 152 132 182 311 312 200 200 249 255 17 10 350 333 305 285 280 256 191 166 171 216 240 236 223 218 216 219 221 222 227 234 243 250 256 263 264 255 242 233 224 217 218 221 223 226 227 227 228 228 227 227 229 231 233 234 235 236 238 240 240 240 240 240 240 242 243 244 244 245 246 246 246 246 246 246
201 207 214 225 234 226 222 233 239 238 243 188 140 247 331 1 160 208 255 236 38 348 333 328 316 301 302 299 233 186 196 217 228 230 219 210 205 205 201 194 194 199 204 211 223 239 239 226 216 212 210 209 208 209 214 221 225 227 230 230 229 230 232 235 237 238 238 240 241 241 242 243 243 242 244 246 247 246 246 247 247 246 246 247 247 247
200 208 212 220 229 227 227 237 248 245 227 214 221 255 24 174 193 228 250 252 329 325 330 329 317 306 301 292 256 218 228 240 230 213 200 192 189 185 178 172 167 158 151 152 154 159 174 183 188 193 197 198 198 200 206 214 221 225 228 230 231 234 237 240 241 240 240 240 239 239 240 242 243 245 247 249 249 248 247 248 248 247 247 247 246 246
200 205 213 222 226 227 229 235 249 256 203 169 182 163 160 217 231 245 292 304 304 316 333 331 318 311 302 283 260 250 263 254 196 179 173 173 172 166 162 157 147 137 131 130 127 126 133 148 165 174 178 178 180 186 193 199 208 216 222 227 232 235 238 240 240 241 240 240 240 240 241 242 244 246 248 249 249 249 249 249 249 248 248 247 246 246
215 221 226 222 216 224 236 232 239 257 178 150 163 171 181 219 281 6 320 305 306 322 331 327 316 311 304 287 259 241 233 163 155 157 154 157 160 156 152 146 138 133 128 124 122 121 122 127 133 141 147 154 159 165 172 178 184 192 207 219 226 231 234 235 236 238 239 240 241 242 243 245 247 249 250 250 250 251 251 250 249 248 247 246 246 246
210 212 239 234 213 215 227 217 224 306 168 163 178 205 198 212 321 26 278 294 311 329 329 322 317 315 308 287 243 196 170 153 155 154 147 148 150 149 148 143 136 131 128 124 122 120 119 119 119 119 124 130 137 144 152 160 166 174 188 205 216 225 231 235 237 239 241 242 243 244 246 248 251 252 252 252 252 252 250 249 249 248 246 246 246 246
203 231 286 268 247 248 254 260 292 314 302 234 191 188 195 191 185 200 230 276 305 330 336 317 313 324 318 274 213 173 164 161 155 151 150 146 142 142 144 139 131 128 125 122 119 118 115 112 112 113 115 116 121 129 137 147 158 167 177 192 207 218 226 233 237 239 242 245 247 249 251 253 254 254 254 254 253 251 250 249 248 247 246 246 245 244
287 308 310 281 283 288 280 269 265 278 283 269 213 164 180 178 160 174 204 268 325 344 341 311 308 335 329 252 198 173 164 154 143 143 148 142 135 135 135 129 124 124 123 121 119 117 114 111 110 111 110 108 110 112 116 125 136 143 151 167 188 206 221 231 236 238 241 243 245 247 248 251 253 254 255 254 253 252 251 250 250 248 247 247 246 245
288 314 313 280 284 291 281 269 257 245 255 255 227 162 164 164 144 141 126 71 31 6 344 308 320 9 4 237 176 162 154 142 134 134 138 140 135 128 123 119 117 117 118 117 114 113 114 111 107 106 104 101 100 99 101 105 107 107 107 110 115 128 153 190 214 226 232 234 239 242 242 245 248 250 252 254 253 252 252 251 250 249 248 249 249 248
283 332 323 281 268 266 265 283 296 289 267 254 238 192 167 153 128 109 99 83 57 25 1 324 153 105 72 76 121 142 142 134 130 129 130 131 126 120 116 112 109 110 110 111 110 110 111 108 101 98 95 90 87 87 88 89 88 85 85 84 82 84 85 90 112 149 184 204 219 229 234 240 244 247 251 254 255 255 254 254 254 253 253 254 253 253
273 285 282 267 269 276 274 277 286 284 267 250 238 218 178 145 117 96 89 85 68 39 36 64 110 127 113 93 103 122 129 123 120 121 121 116 110 110 108 103 101 103 104 105 108 108 107 103 99 94 88 83 79 77 75 75 73 69 68 66 62 64 63 60 62 70 82 184 222 229 233 236 238 241 246 249 252 254 253 252 254 254 254 255 256 257
259 258 256 257 265 265 261 255 252 261 265 246 224 206 169 127 102 87 82 79 63 53 76 82 86 104 118 114 108 107 110 113 114 114 112 108 103 101 99 96 96 98 98 101 104 103 101 99 96 93 88 84 80 76 72 69 65 60 56 52 50 53 56 58 62 64 58 41 271 260 255 250 247 246 245 246 249 252 252 252 254 255 256 257 256 256
232 236 237 238 249 253 253 255 264 283 298 280 243 207 160 113 92 83 81 78 56 58 90 98 91 86 96 110 115 112 107 109 114 112 107 103 101 97 95 93 93 93 94 98 101 102 101 100 98 95 92 89 86 83 80 75 71 66 61 57 53 51 52 55 56 58 58 55 48 41 31 5 328 306 286 275 271 269 269 271 273 275 279 279 276 273